Location: Newark
(50.0306°N, 2.3272°E)
Time: 03:03:03
(UTC+00:00)

Vanguard 1 Rocket - Pass Details

Date: 14 December 2019
Orbit: 650 x 4226 km, 34.3° (Epoch: 19 January)

Event Time Altitude Azimuth Distance (km) Brightness Sun altitude
Rises 21:18:05 0° 247° (WSW) 7,861 12.5 -50.8°
Reaches altitude 10° 21:24:33 10° 242° (WSW) 6,361 11.8 -51.7°
Enters shadow 21:34:21 29° 221° (SW) 4,039 10.5 -53.0°
Maximum altitude 21:40:12 38° 183° (S) 3,029 - -53.8°
Drops below altitude 10° 21:49:01 10° 119° (ESE) 3,619 - -54.9°
Sets 21:51:36 0° 111° (ESE) 4,260 - -55.2°
